sat.trackr.live / text

‹ back to catalog

PICO-01B009

NORAD 58287 · 2023-174AH

PAYLOAD ACTIVE UNKNOWN

§ Identity

Operator
Country
IT
Launch date
2023-11-11
Launch site
AFWTR
Launch vehicle
Mass (kg)
RCS (m²)

External: N2YO · Heavens-Above · Gunter

§ Orbital elements

Epoch: 2026-08-05T08:19:26.246784Z

Period
88.29 min
Inclination
97.3509°
Eccentricity
0.0014273
Mean motion
16.30899939 rev/d
Perigee alt
180.7 km
Apogee alt
199.5 km
Semi-major
6,568.3 km
B*
7.4699e-4
RAAN
318.8125°
Arg perigee
271.4369°
Mean anomaly
88.5290°
Rev number
15,400

§ Raw data

PICO-01B0091 58287U 23174AH  26217.34683156  .03636652  24675-5  74699-3 0  99992 58287  97.3509 318.8125 0014273 271.4369  88.5290 16.30899939154001

JSON: /api/v1/satellites/58287 · /tle

For live sub-satellite position, see the globe view (requires WebGL).

§ Visibility from observer

Set your observer location to see the next 7 days of passes ≥ 10°. The values pass through the URL so the page stays shareable.

No JS? Fill the form by hand. The geolocation button needs JavaScript.